Time,TemperatureF,DewpointF,PressureIn,WindDirection,WindDirectionDegrees,WindSpeedMPH,WindSpeedGustMPH,Humidity,HourlyPrecipIn,Conditions,Clouds,dailyrainin,SoftwareType,DateUTC
2013-01-11 00:06:00,37.9,31.0,30.50,SE,129,0.0,-999.0,76,-99.99,,,0.00,weatherlink.com 1.10,2013-01-11 05:06:00,
2013-01-11 00:21:00,37.9,31.0,30.50,SE,129,0.0,-999.0,76,-99.99,,,0.00,weatherlink.com 1.10,2013-01-11 05:21:00,
2013-01-11 00:38:00,38.3,31.0,30.51,SE,129,0.0,-999.0,75,-99.99,,,0.00,weatherlink.com 1.10,2013-01-11 05:38:00,
2013-01-11 00:51:00,37.8,31.0,30.50,SE,129,0.0,-999.0,76,-99.99,,,0.00,weatherlink.com 1.10,2013-01-11 05:51:00,
2013-01-11 01:06:00,37.8,31.0,30.50,SE,129,0.0,-999.0,77,-99.99,,,0.00,weatherlink.com 1.10,2013-01-11 06:06:00,
2013-01-11 01:21:00,37.9,31.0,30.50,SE,129,0.0,-999.0,76,-99.99,,,0.00,weatherlink.com 1.10,2013-01-11 06:21:00,
2013-01-11 01:36:00,37.8,31.0,30.50,SE,129,0.0,-999.0,77,-99.99,,,0.00,weatherlink.com 1.10,2013-01-11 06:36:00,
2013-01-11 01:51:00,37.8,31.0,30.50,SE,129,0.0,-999.0,77,-99.99,,,0.00,weatherlink.com 1.10,2013-01-11 06:51:00,
2013-01-11 02:06:00,37.3,31.0,30.49,SE,129,0.0,-999.0,78,-99.99,,,0.00,weatherlink.com 1.10,2013-01-11 07:06:00,
2013-01-11 02:21:00,37.3,31.0,30.48,SE,129,0.0,-999.0,77,-99.99,,,0.00,weatherlink.com 1.10,2013-01-11 07:21:00,
2013-01-11 02:36:00,37.0,30.0,30.49,SE,129,0.0,-999.0,77,-99.99,,,0.00,weatherlink.com 1.10,2013-01-11 07:36:00,
2013-01-11 02:51:00,36.5,30.0,30.48,SE,129,0.0,-999.0,78,-99.99,,,0.00,weatherlink.com 1.10,2013-01-11 07:51:00,
2013-01-11 03:06:00,35.6,30.0,30.47,SE,129,0.0,-999.0,80,-99.99,,,0.00,weatherlink.com 1.10,2013-01-11 08:06:00,
2013-01-11 03:21:00,35.6,30.0,30.47,SE,129,0.0,-999.0,81,-99.99,,,0.00,weatherlink.com 1.10,2013-01-11 08:21:00,
2013-01-11 03:36:00,34.6,30.0,30.47,SE,129,0.0,-999.0,82,-99.99,,,0.00,weatherlink.com 1.10,2013-01-11 08:36:00,
2013-01-11 03:51:00,34.6,30.0,30.46,SE,129,0.0,-999.0,83,-99.99,,,0.00,weatherlink.com 1.10,2013-01-11 08:51:00,
2013-01-11 04:06:00,34.1,30.0,30.46,SE,129,0.0,-999.0,84,-99.99,,,0.00,weatherlink.com 1.10,2013-01-11 09:06:00,
2013-01-11 04:21:00,33.4,29.0,30.46,SE,129,0.0,-999.0,85,-99.99,,,0.00,weatherlink.com 1.10,2013-01-11 09:21:00,
2013-01-11 04:36:00,33.2,30.0,30.45,SE,129,0.0,-999.0,86,-99.99,,,0.00,weatherlink.com 1.10,2013-01-11 09:36:00,
2013-01-11 04:51:00,32.8,29.0,30.45,SE,129,0.0,-999.0,87,-99.99,,,0.00,weatherlink.com 1.10,2013-01-11 09:51:00,
2013-01-11 05:06:00,33.1,30.0,30.45,SE,129,0.0,-999.0,87,-99.99,,,0.00,weatherlink.com 1.10,2013-01-11 10:06:00,
2013-01-11 05:21:00,32.9,30.0,30.46,SE,129,0.0,-999.0,87,-99.99,,,0.00,weatherlink.com 1.10,2013-01-11 10:21:00,
2013-01-11 05:36:00,33.1,30.0,30.45,SE,129,0.0,-999.0,88,-99.99,,,0.00,weatherlink.com 1.10,2013-01-11 10:36:00,
2013-01-11 05:51:00,33.2,30.0,30.44,SE,129,0.0,-999.0,88,-99.99,,,0.00,weatherlink.com 1.10,2013-01-11 10:51:00,
2013-01-11 06:06:00,33.7,31.0,30.44,SE,129,0.0,-999.0,88,-99.99,,,0.00,weatherlink.com 1.10,2013-01-11 11:06:00,
2013-01-11 06:21:00,33.5,30.0,30.44,SE,129,0.0,-999.0,88,-99.99,,,0.00,weatherlink.com 1.10,2013-01-11 11:21:00,
2013-01-11 06:36:00,33.2,30.0,30.44,SE,129,0.0,-999.0,88,-99.99,,,0.00,weatherlink.com 1.10,2013-01-11 11:36:00,
2013-01-11 06:51:00,32.9,30.0,30.42,SE,129,0.0,-999.0,88,-99.99,,,0.00,weatherlink.com 1.10,2013-01-11 11:51:00,
2013-01-11 07:06:00,33.2,30.0,30.42,SE,129,0.0,-999.0,88,-99.99,,,0.00,weatherlink.com 1.10,2013-01-11 12:06:00,
2013-01-11 07:21:00,32.5,29.0,30.42,SE,129,0.0,-999.0,88,-99.99,,,0.00,weatherlink.com 1.10,2013-01-11 12:21:00,
2013-01-11 07:36:00,33.2,30.0,30.42,SE,129,0.0,-999.0,88,-99.99,,,0.00,weatherlink.com 1.10,2013-01-11 12:36:00,
2013-01-11 07:51:00,33.1,30.0,30.42,SE,129,0.0,-999.0,89,-99.99,,,0.00,weatherlink.com 1.10,2013-01-11 12:51:00,
2013-01-11 08:06:00,34.6,32.0,30.43,SE,129,0.0,-999.0,89,-99.99,,,0.00,weatherlink.com 1.10,2013-01-11 13:06:00,
2013-01-11 08:21:00,35.2,32.0,30.41,SE,129,0.0,-999.0,88,-99.99,,,0.00,weatherlink.com 1.10,2013-01-11 13:21:00,
2013-01-11 08:36:00,36.3,33.0,30.41,SE,129,0.0,-999.0,89,-99.99,,,0.00,weatherlink.com 1.10,2013-01-11 13:36:00,
2013-01-11 08:51:00,37.3,34.0,30.42,SE,129,0.0,-999.0,88,-99.99,,,0.00,weatherlink.com 1.10,2013-01-11 13:51:00,
2013-01-11 09:06:00,38.6,35.0,30.41,SE,129,0.0,-999.0,86,-99.99,,,0.00,weatherlink.com 1.10,2013-01-11 14:06:00,
2013-01-11 09:21:00,39.6,35.0,30.40,SE,129,0.0,-999.0,82,-99.99,,,0.00,weatherlink.com 1.10,2013-01-11 14:21:00,
2013-01-11 09:36:00,40.3,35.0,30.42,SE,129,0.0,-999.0,80,-99.99,,,0.00,weatherlink.com 1.10,2013-01-11 14:36:00,
2013-01-11 09:51:00,41.1,34.0,30.39,SE,129,0.0,-999.0,77,-99.99,,,0.00,weatherlink.com 1.10,2013-01-11 14:51:00,
2013-01-11 10:06:00,41.2,34.0,30.39,SE,129,0.0,-999.0,76,-99.99,,,0.00,weatherlink.com 1.10,2013-01-11 15:06:00,
2013-01-11 10:21:00,42.1,35.0,30.39,SE,129,0.0,-999.0,75,-99.99,,,0.00,weatherlink.com 1.10,2013-01-11 15:21:00,
2013-01-11 10:36:00,42.8,35.0,30.38,SE,126,1.0,-999.0,74,-99.99,,,0.00,weatherlink.com 1.10,2013-01-11 15:36:00,
2013-01-11 10:51:00,43.1,36.0,30.36,SE,127,0.0,-999.0,75,-99.99,,,0.00,weatherlink.com 1.10,2013-01-11 15:51:00,
2013-01-11 11:06:00,42.9,36.0,30.36,SE,127,0.0,-999.0,75,-99.99,,,0.00,weatherlink.com 1.10,2013-01-11 16:06:00,
2013-01-11 11:21:00,43.1,36.0,30.34,SE,127,0.0,-999.0,76,-99.99,,,0.00,weatherlink.com 1.10,2013-01-11 16:21:00,
2013-01-11 11:36:00,43.1,36.0,30.33,SE,141,0.0,-999.0,77,-99.99,,,0.00,weatherlink.com 1.10,2013-01-11 16:36:00,
2013-01-11 11:51:00,42.9,36.0,30.31,SE,141,0.0,-999.0,77,-99.99,,,0.00,weatherlink.com 1.10,2013-01-11 16:51:00,
2013-01-11 12:06:00,42.9,36.0,30.30,SE,141,0.0,-999.0,78,-99.99,,,0.00,weatherlink.com 1.10,2013-01-11 17:06:00,
2013-01-11 12:21:00,43.2,37.0,30.29,SE,141,0.0,-999.0,78,-99.99,,,0.00,weatherlink.com 1.10,2013-01-11 17:21:00,
2013-01-11 12:36:00,43.5,37.0,30.28,SE,141,0.0,-999.0,79,-99.99,,,0.00,weatherlink.com 1.10,2013-01-11 17:36:00,
2013-01-11 12:51:00,43.2,37.0,30.27,SE,132,1.0,-999.0,80,-99.99,,,0.00,weatherlink.com 1.10,2013-01-11 17:51:00,
2013-01-11 13:06:00,42.9,38.0,30.26,SE,136,2.0,-999.0,83,-99.99,,,0.01,weatherlink.com 1.10,2013-01-11 18:06:00,
2013-01-11 13:21:00,42.8,38.0,30.25,SE,136,0.0,-999.0,84,-99.99,,,0.01,weatherlink.com 1.10,2013-01-11 18:21:00,
2013-01-11 13:36:00,42.8,39.0,30.24,SSE,153,0.0,-999.0,85,-99.99,,,0.01,weatherlink.com 1.10,2013-01-11 18:36:00,
2013-01-11 13:51:00,42.8,39.0,30.24,SSE,153,0.0,-999.0,86,-99.99,,,0.01,weatherlink.com 1.10,2013-01-11 18:51:00,
2013-01-11 14:06:00,42.9,39.0,30.22,SSE,153,0.0,-999.0,87,-99.99,,,0.01,weatherlink.com 1.10,2013-01-11 19:06:00,
2013-01-11 14:21:00,42.8,39.0,30.23,SSE,153,0.0,-999.0,87,-99.99,,,0.01,weatherlink.com 1.10,2013-01-11 19:21:00,
2013-01-11 14:36:00,42.8,40.0,30.22,SSE,153,0.0,-999.0,89,-99.99,,,0.01,weatherlink.com 1.10,2013-01-11 19:36:00,
2013-01-11 14:51:00,42.6,40.0,30.21,SSE,153,0.0,-999.0,90,-99.99,,,0.01,weatherlink.com 1.10,2013-01-11 19:51:00,
2013-01-11 15:06:00,42.3,40.0,30.21,SSE,153,0.0,-999.0,90,-99.99,,,0.01,weatherlink.com 1.10,2013-01-11 20:06:00,
2013-01-11 15:21:00,42.1,40.0,30.21,SSE,153,0.0,-999.0,92,-99.99,,,0.01,weatherlink.com 1.10,2013-01-11 20:21:00,
2013-01-11 15:36:00,41.9,40.0,30.20,SSE,153,0.0,-999.0,93,-99.99,,,0.02,weatherlink.com 1.10,2013-01-11 20:36:00,
2013-01-11 16:06:00,41.8,41.0,30.19,SSE,153,0.0,-999.0,95,-99.99,,,0.02,weatherlink.com 1.10,2013-01-11 21:06:00,
2013-01-11 16:21:00,41.8,41.0,30.18,SSE,153,0.0,-999.0,95,-99.99,,,0.02,weatherlink.com 1.10,2013-01-11 21:21:00,
2013-01-11 16:36:00,41.8,41.0,30.18,SSE,153,0.0,-999.0,95,-99.99,,,0.02,weatherlink.com 1.10,2013-01-11 21:36:00,
2013-01-11 16:51:00,41.6,41.0,30.16,SSE,153,0.0,-999.0,96,-99.99,,,0.02,weatherlink.com 1.10,2013-01-11 21:51:00,
2013-01-11 17:06:00,41.6,41.0,30.16,SSE,153,0.0,-999.0,96,-99.99,,,0.02,weatherlink.com 1.10,2013-01-11 22:06:00,
2013-01-11 17:21:00,41.6,41.0,30.16,SSE,153,0.0,-999.0,97,-99.99,,,0.03,weatherlink.com 1.10,2013-01-11 22:21:00,
2013-01-11 17:36:00,41.8,41.0,30.15,SSE,153,0.0,-999.0,97,-99.99,,,0.03,weatherlink.com 1.10,2013-01-11 22:36:00,
2013-01-11 17:51:00,41.8,41.0,30.15,SSE,153,0.0,-999.0,97,-99.99,,,0.03,weatherlink.com 1.10,2013-01-11 22:51:00,
2013-01-11 18:06:00,41.8,41.0,30.14,SSE,153,0.0,-999.0,98,-99.99,,,0.04,weatherlink.com 1.10,2013-01-11 23:06:00,
2013-01-11 18:21:00,41.8,41.0,30.14,SSE,153,0.0,-999.0,98,-99.99,,,0.04,weatherlink.com 1.10,2013-01-11 23:21:00,
2013-01-11 18:36:00,41.8,41.0,30.14,SSE,153,0.0,-999.0,98,-99.99,,,0.04,weatherlink.com 1.10,2013-01-11 23:36:00,
2013-01-11 18:51:00,41.9,41.0,30.14,SSE,153,0.0,-999.0,98,-99.99,,,0.04,weatherlink.com 1.10,2013-01-11 23:51:00,
2013-01-11 19:06:00,41.9,41.0,30.14,SSE,153,0.0,-999.0,98,-99.99,,,0.04,weatherlink.com 1.10,2013-01-12 00:06:00,
2013-01-11 19:21:00,42.1,42.0,30.14,SSE,153,0.0,-999.0,98,-99.99,,,0.04,weatherlink.com 1.10,2013-01-12 00:21:00,
2013-01-11 19:36:00,42.1,42.0,30.14,SSE,153,0.0,-999.0,99,-99.99,,,0.04,weatherlink.com 1.10,2013-01-12 00:36:00,
2013-01-11 19:51:00,42.2,42.0,30.13,SSE,153,0.0,-999.0,99,-99.99,,,0.04,weatherlink.com 1.10,2013-01-12 00:51:00,
2013-01-11 20:06:00,42.2,42.0,30.12,SSE,153,0.0,-999.0,99,-99.99,,,0.04,weatherlink.com 1.10,2013-01-12 01:06:00,
2013-01-11 20:21:00,42.2,42.0,30.11,SSE,153,0.0,-999.0,99,-99.99,,,0.04,weatherlink.com 1.10,2013-01-12 01:21:00,
2013-01-11 20:36:00,42.2,42.0,30.12,SSE,153,0.0,-999.0,99,-99.99,,,0.04,weatherlink.com 1.10,2013-01-12 01:36:00,
2013-01-11 20:51:00,42.2,42.0,30.13,SSE,153,0.0,-999.0,99,-99.99,,,0.04,weatherlink.com 1.10,2013-01-12 01:51:00,
2013-01-11 21:06:00,42.2,42.0,30.12,SSE,153,0.0,-999.0,99,-99.99,,,0.04,weatherlink.com 1.10,2013-01-12 02:06:00,
2013-01-11 21:21:00,42.2,42.0,30.11,SSE,153,0.0,-999.0,99,-99.99,,,0.04,weatherlink.com 1.10,2013-01-12 02:21:00,
2013-01-11 21:51:00,42.2,42.0,30.12,SSE,153,0.0,-999.0,100,-99.99,,,0.04,weatherlink.com 1.10,2013-01-12 02:51:00,
2013-01-11 22:06:00,42.2,42.0,30.11,SSE,153,0.0,-999.0,100,-99.99,,,0.04,weatherlink.com 1.10,2013-01-12 03:06:00,
2013-01-11 22:21:00,42.2,42.0,30.11,SSE,153,0.0,-999.0,100,-99.99,,,0.04,weatherlink.com 1.10,2013-01-12 03:21:00,
2013-01-11 22:36:00,42.2,42.0,30.11,SSE,153,0.0,-999.0,100,-99.99,,,0.04,weatherlink.com 1.10,2013-01-12 03:36:00,
2013-01-11 22:51:00,42.2,42.0,30.10,SSE,153,0.0,-999.0,100,-99.99,,,0.04,weatherlink.com 1.10,2013-01-12 03:51:00,
2013-01-11 23:06:00,42.2,42.0,30.11,SSE,153,0.0,-999.0,100,-99.99,,,0.04,weatherlink.com 1.10,2013-01-12 04:06:00,
2013-01-11 23:21:00,42.3,42.0,30.11,SSE,153,0.0,-999.0,100,-99.99,,,0.04,weatherlink.com 1.10,2013-01-12 04:21:00,
2013-01-11 23:36:00,42.5,43.0,30.10,SSE,153,0.0,-999.0,100,-99.99,,,0.04,weatherlink.com 1.10,2013-01-12 04:36:00,
2013-01-11 23:51:00,42.6,43.0,30.10,SSE,153,0.0,-999.0,100,-99.99,,,0.04,weatherlink.com 1.10,2013-01-12 04:51:00,